Regional Weather Roundup
Issued by NWS Pendleton, OR

Home | Current Version | Previous Version | Text Only | Print | Product List | Glossary On
Versions: 1 2 3 4 5 6 7 8 9 10 11 12 13 14 15 16 17 18 19 20 21 22 23 24 25 26 27 28 29 30 31 32 33 34 35 36 37 38 39 40 41 42 43 44 45 46 47 48 49 50
000
ASUS46 KPDT 032025
RWRPDT
PENDLETON REGIONAL WEATHER ROUNDUP
NATIONAL WEATHER SERVICE PENDLETON OREGON
100 PM PDT SUN MAY 3 2015

NOTE: FAIR INDICATES FEW OR NO CLOUDS BELOW 12,000 FEET WITH NO
SIGNIFICANT WEATHER AND/OR OBSTRUCTIONS TO VISIBILITY.

# INDICATES UNOFFICIAL STATION AND DATA

WAZ520-032110-
EAST SLOPES OF WASHINGTON CASCADES

CITY            SKY/WX      TMP DP  RH  WIND    PRES   REMARKS
#BULLFROG 2SW   N/A         64  33  31  N2      27.55F
#CLE ELUM HS    N/A         65  29  26  NE5     29.90F
#CLE ELUM LAKE  N/A         64  32  30  S3      29.89F
#CLIFFDEL 2NW   N/A         67  32  27  S2      N/A
#GLENWOOD       N/A         69  33  26  CALM    29.91F
#MANASTASH CYN  N/A         64  31  29  N2      29.93F
#NELSON         N/A         66  33  29  CALM    29.93F
#NELSON 3SW     N/A         63  33  32  CALM    30.14F
#NILE           N/A         66  33  29  E2      29.17F
#RONALD 2NW     N/A         63  36  36  W3      29.83F
#SNOWDEN        N/A         65  16  15  CALM    N/A
#TEANAWAY 4NE   N/A         65  37  35  SW5     N/A
#TROUT LAKE 1NE N/A         67  37  33  E2      29.90F
$$

WAZ521-032110-
SIMCOE HIGHLANDS

CITY            SKY/WX      TMP DP  RH  WIND    PRES   REMARKS
#BICKLETON HS   N/A         61  24  24  E9      N/A
#CENTERVILLE 4W N/A         69  32  25  E9      29.70F
#CENTERVILLE 1SWN/A         65  36  34  SE12    29.90F
#GOLDENDALE     N/A         68  30  24  SE8     N/A
#GOLDENDALE 1NE N/A         67  21  17  E2      N/A
#GOLDENDALE 5WNWN/A         68  32  26  SE6     29.90F
#GOODNOE HILLS  N/A         73  31  21  N12     N/A
#LYLE 6NE       N/A         66  37  34  SW5     29.88F
$$

WAZ026-032110-
KITTITAS VALLEY

CITY            SKY/WX      TMP DP  RH  WIND    PRES   REMARKS
ELLENSBURG AP   SUNNY       71  27  19  E7      29.95F
YTC-OPS AREA    SUNNY       60  22  23  N8      29.96F
#ELLENSBURG CWU N/A         67  28  23  N6      29.86F
#ELLENSBURG 3NE N/A         65  33  30  CALM    29.95F
#ELLENSBURG 1E  N/A         72  33  24  SE1     N/A
#KITTITAS 3S    N/A         65  37  35  E5      29.91F
#THORP 6N       N/A         63  32  31  E7      29.95F
$$

WAZ027-032110-
YAKIMA VALLEY

CITY            SKY/WX      TMP DP  RH  WIND    PRES   REMARKS
SUNNYSIDE AP    SUNNY       71  30  22  SW6     29.93F
YAKIMA AIRPORT  SUNNY       74  24  15  CALM    29.94F
#DONALD 2NE     N/A         77   6   6  S1      28.78F
#GRANDVIEW      N/A         70  31  23  CALM    29.93F
#MABTON         N/A         70  34  26  NE3     29.92F
#NACHES 2SW     N/A         70  38  31  SE1     29.95F
#OUTLOOK DOT    N/A         N/A N/A N/A S6      N/A
#SELAH 8E       N/A         70  26  19  NE8     N/A
#TERRACE HTS    N/A         71  32  24  CALM    29.88F
#TOPPENISH      N/A         70  33  25  SE3     29.83F
#WAPATO 4NE     N/A         77   6   6  S1      28.78F
#WEST VALLEY    N/A         69  32  25  CALM    29.90F
#W YAKIMA       N/A         69  30  23  E2      29.90
#WHITE SWAN 5E  N/A         69  33  26  NE5     29.92F
$$

WAZ028-032110-
LOWER COLUMBIA BASIN...WASHINGTON

CITY            SKY/WX      TMP DP  RH  WIND    PRES   REMARKS
HANFORD         SUNNY       71  22  16  NW5     29.94F
PASCO           SUNNY       71  37  29  NW8     29.94F
RICHLAND AWOS   SUNNY       73  30  20  NE8     29.94F
#BASIN CITY 5SW N/A         74  40  29  N6      29.93F
#BENTON CITY    N/A         70  34  26  E6      29.83F
#CONNELL 5N     N/A         73  32  22  NW1     29.91F
#CONNELL 5NW    N/A         70  37  30  SW6     29.89F
#ELTOPIA 6NW    N/A         73  37  27  NW6     28.91F
#KAHLOTUS       N/A         69  31  24  SE13    29.92F
#KENNEWICK      N/A         64  33  31  N2      27.55F
#KENNEWICK 3S   N/A         68  39  35  CALM    29.95F
#PATERSON       N/A         70  36  29  S5      29.90F
#PROSSER        N/A         70  26  19  N2      29.92F
#SAGEMOOR 2W    N/A         72  41  33  CALM    29.78F
#TOUCHET 2S     N/A         68  44  42  W3      29.91F
#WEST PASCO     N/A         72  41  33  NW2     29.93F
$$

WAZ029-032110-
FOOTHILLS OF THE BLUES...WASHINGTON

CITY            SKY/WX      TMP DP  RH  WIND    PRES   REMARKS
WALLA WALLA AP  SUNNY       69  34  27  W5      29.93F
#DAYTON SCHOOL  N/A         69  24  18  N6      29.94F
#LOWDEN 2SE     N/A         68  41  37  W3      29.89F
#PLEASANT VIEW 1N/A         69  25  19  CALM    29.96F
#PRESCOTT       N/A         72  29  20  N3      29.90F
#SUDBURY        N/A         69  N/A N/A CALM    N/A
#WHITMAN COLLEGEN/A         66  37  34  NW1     29.96F
#WAITSBURG 5S   N/A         65  41  41  S5      30.00F
#WAITSBURG 8N   N/A         76  22  13  N3      29.74F
#WALLA WALLA 5E N/A         68  41  37  VRB6    N/A
#WALLA WALLA U  N/A         68  37  32  CALM    29.92F
#WHITMAN MISSIONN/A         68  42  39  W1      29.93F
$$

WAZ030-032110-
BLUE MOUNTAINS...WASHINGTON

CITY            SKY/WX      TMP DP  RH  WIND    PRES   REMARKS
#DIXIE 5SE      N/A         60  31  33  N9      29.89F
$$

ORZ009-041-WAZ024-032110-
COLUMBIA RIVER GORGE

CITY            SKY/WX      TMP DP  RH  WIND    PRES   REMARKS
HOOD RIVER AP   SUNNY       72  37  28  N6      29.91F
THE DALLES AP   SUNNY       73  37  27  MISG    29.91F
#ARLINGTON AIRPON/A         70  34  26  E10     29.97S
#ARLINGTON HS   N/A         72  33  24  N6      29.83F
#CELILO DOT     N/A         76  44  32  CALM    N/A
#MOSIER 1S      N/A         74  25  16  SE7     29.91F
#MURDOCK        N/A         74  41  30  S3      29.91F
#RUFUS DOT      N/A         70  39  32  N7      N/A

$$

ORZ510-032110-
NORTH CENTRAL OREGON

CITY            SKY/WX      TMP DP  RH  WIND    PRES   REMARKS
#CHENOWITH 1W   N/A         66  38  36  S6      N/A
#COW CYN RST AREN/A         65  19  17  CALM    N/A
#DUFUR 9E       N/A         63  30  29  E5      29.94F
#GRASS VALLEY 1SN/A         69  35  28  E7      29.91F
#KENT DOT       N/A         67  32  27  N8      N/A
#MAUPIN SCHOOL  N/A         73  33  23  N2      29.91F
#MORO SCHOOL    N/A         66  38  36  CALM    30.18S
#SHANIKO 5WSW   N/A         64  29  27  NE9     N/A
#SHANIKO 4NW    N/A         64  25  23  NE7     29.96F
#TYGH VALLEY 2NEN/A         72  35  26  N5      29.89F
#WAPANITIA AIRPON/A         68  34  28  CALM    29.90F
#WASCO DOT      N/A         70  33  25  E10     N/A
#WASCO AIRPORT  N/A         68  30  24  E9      N/A
#WASCO 5NE      N/A         68  35  29  E7      29.92F
$$

ORZ511-032110-
CENTRAL OREGON

CITY            SKY/WX      TMP DP  RH  WIND    PRES   REMARKS
BEND AIRPORT    SUNNY       66  25  21  N8      29.91F
MADRAS AIRPORT  SUNNY       66  32  28  N3      29.94F
PRINEVILLE AP   SUNNY       66  27  23  VRB6    29.92F
REDMOND AIRPORT SUNNY       67  28  23  VRB3    29.91F
#BEND 1SW       N/A         68  32  26  NE2     N/A
#BEND-AWBREY    N/A         67  34  29  NW5     29.84F
#BEND-KIM LN    N/A         69  35  28  N2      29.89F
#CULVER         N/A         67  31  26  N2      29.88F
#LAKE BILLY CHINN/A         65  -7   5  NW6     29.97F
#POWELL BUTTE 3EN/A         63  32  31  NW6     N/A
#POWELL BUTTE   N/A         73  40  30  N3      29.56F
#PRINEVILLE 3N  N/A         69  34  27  S6      29.82F
#WARM SPRINGS   N/A         73  32  22  SW1     29.87F

$$


ORZ509-032110-
EAST SLOPES OF OREGON CASCADES

CITY            SKY/WX      TMP DP  RH  WIND    PRES   REMARKS
#BLUE BOX PASS  N/A         63   8  11  S3      N/A
#CAMP SHERMAN   N/A         75  31  20  N1      29.84F
#LA PINE 4NW    N/A         68  30  24  CALM    29.88F
#SISTERS AIRPOR N/A         66  38  36  N1      30.17S
#SISTERS ODOT   N/A         65  N/A N/A NW3     N/A
#SISTERS 1NW    N/A         66  27  23  N7      N/A
#SISTERS 3N     N/A         67  35  30  E6      29.95S
#SUNRIVER       N/A         69  22  17  S2      29.73F
#TUMALO 3W      N/A         66  31  27  N5      29.73F
#WANOGA BUTTE D N/A         59  16  18  SW3     N/A

$$

ORZ044-032110-
LOWER COLUMBIA BASIN...OREGON

CITY            SKY/WX      TMP DP  RH  WIND    PRES   REMARKS
HERMISTON       SUNNY       72  33  24  N9      29.92F
#BOARDMAN 8SW   N/A         70  34  26  NE6     29.91F
#ECHO 8SW       N/A         70  34  26  E7      29.94F
#IONE SCHOOL    N/A         69  30  23  N2      29.89F
#IRRIGON 4NW    N/A         73  33  23  E3      N/A
#UMATILLA SCHOOLN/A         78  46  32  CALM    29.96F
#UMATILLA       N/A         73  35  25  CALM    29.83F
$$

ORZ507-032110-
NORTHERN FOOTHILLS OF THE BLUES

CITY            SKY/WX      TMP DP  RH  WIND    PRES   REMARKS
PENDLETON AIRPT SUNNY       70  27  20  NE8     29.92F
#ADAMS 3WNW     N/A         67  31  26  NE6     29.91F
#ATHENA         N/A         65  30  27  NW5     29.95F
#CAYUSE         N/A         67  33  28  N3      29.90F
#HELIX SCHOOL   N/A         65  28  25  N6      29.93F
#HELIX 3N       N/A         63  27  25  N7      29.91F
#HELIX 6SW      N/A         67  30  25  N8      29.92F
#HOLDMAN 6E     N/A         68  27  21  SW7     29.73F
#M-F FERNDALE   N/A         74  39  28  CALM    29.92F
#M-F GROVE ELEM N/A         66  30  26  N1      29.91F
#M-FREEWATER 5SEN/A         66  38  36  CALM    29.93F
#PENDLETON DNTN N/A         76  37  24  SW3     29.90F
#PDT AQUATIC CTRN/A         70  38  31  NE5     29.92F
#PENDLETON 5NE  N/A         70  34  26  NE3     29.89F
#PDT SUNRIDGE   N/A         71  32  24  W3      29.92F
#PENDLETON 7NW  N/A         71  42  35  CALM    29.88F
#TUTUILLA       N/A         69  35  28  N3      29.93F
#UMAPINE 2E     N/A         67  43  42  CALM    29.90F
#WESTON SCHOOL  N/A         62  25  24  E7      29.92F

$$

ORZ508-032110-
SOUTHERN FOOTHILLS OF THE BLUES

CITY            SKY/WX      TMP DP  RH  WIND    PRES   REMARKS
#AJAX           N/A         66  25  21  N9      29.88F
#CONDON SCHOOL  N/A         65  30  27  CALM    29.91F
#CONDON 5W      N/A         61  25  25  NE9     29.93S
#FOSSIL SCHOOL  N/A         68  31  25  NE7     29.90F
#HEPPNER EOC    N/A         68  30  24  NE3     29.83F
#HEPPNER 4NE    N/A         64  27  24  E6      29.91F
#LEXINGTON 2SE  N/A         71  30  22  N6      29.89F
#MIKKALO        N/A         71  29  21  NE5     29.93F
#OLEX 4N        N/A         66  34  30  NE10    29.93F
#RUGGS 5NE      N/A         68  29  23  NE13    30.07F
#RUGGS 2SW      N/A         66  28  24  NE5     29.92F

$$

ORZ502-503-032110-
BLUE MOUNTAINS

CITY            SKY/WX      TMP DP  RH  WIND    PRES   REMARKS
MEACHAM         SUNNY       62  28  27  MISG    29.96F
#BATTLE MTN DOT N/A         58  35  42  NW2     N/A
#HEPPNER 15SE   N/A         62  28  27  CALM    29.86F
#LADD CYN SMT   N/A         63  29  28  NW10    N/A
#LADD CREEK ODOTN/A         63  34  34  NE10    N/A
#LONG CREEK HS  N/A         62  28  27  CALM    29.89F
#N POWDER DOT   N/A         63  37  38  NE13    N/A
#PIKES PEAK     N/A         56  34  43  N8      27.99S
#TOLLGATE       N/A         55  32  41  W1      29.91F
#TROY SCHOOL    N/A         72  32  23  N3      29.72F
#UKIAH          N/A         63  28  26  NW5     29.98F
#WESTON 4E      N/A         60  35  39  NW3     29.86F
$$

ORZ505-032110-
JOHN DAY BASIN

CITY            SKY/WX      TMP DP  RH  WIND    PRES   REMARKS
JOHN DAY        SUNNY       67  23  19  W6      29.93F
#DAYVILLE SCHOOLN/A         68  28  22  NW1     29.88F
#MITCHELL       N/A         69  35  28  W2      30.04F
#MONUMENT HS    N/A         70  28  21  S3      29.90F
#MT. VERNON 5SE N/A         64  23  21  W2      29.89F
#WINLOCK        N/A         72  32  23  CALM    30.01F
$$

ORZ506-032110-
OCHOCO AND JOHN DAY HIGHLANDS

CITY            SKY/WX      TMP DP  RH  WIND    PRES   REMARKS
#HORSE RIDGE DO N/A         65  25  22  NW6     N/A
#PAULINA SCHOOL N/A         69  26  20  CALM    29.89F
#PINE MTN OBS   N/A         56  27  33  NW3     N/A
#SENECA         N/A         66  N/A N/A N7      N/A
#SENECA 9NW     N/A         67  30  25  CALM    29.84F
$$

ORZ049-032110-
GRANDE RONDE VALLEY

CITY            SKY/WX      TMP DP  RH  WIND    PRES   REMARKS
LA GRANDE       SUNNY       66  30  26  N8      29.91F
#COVE           N/A         64  42  45  NW1     29.93F
#COVE SCHOOL    N/A         67  38  34  SE1     29.90F
#ELGIN 3N       N/A         72  27  19  E3      29.88F
#ELGIN 1E       N/A         68  33  27  W1      N/A
#IMBLER SCHOOL  N/A         66  31  27  CALM    29.87F
#ISLAND CITY 4N N/A         67  50  54  S1      29.91F
#LADD CYN DOT   N/A         66  36  33  NE5     N/A
#LA GRANDE ELEM N/A         67  31  26  N5      29.93F
#UNION 1S       N/A         66  37  34  N1      29.80F
$$

ORZ050-032110-
WALLOWA COUNTY

CITY            SKY/WX      TMP DP  RH  WIND    PRES   REMARKS
JOSEPH AIRPORT  PTCLDY      66  27  23  S3      29.95F
#ENTERPRISE HS  N/A         65  32  29  CALM    29.95F
#IMNAHA SCHOOL  N/A         72  31  22  N7      29.88F
#IMNAHA 10S     N/A         68  38  33  NE5     29.90F
#JOSEPH 3N      N/A         63  38  39  CALM    29.96F
#JOSEPH 3W      N/A         62  26  25  CALM    29.80F
#LOSTINE        N/A         68  33  27  SW2     29.68F
#MT HOWARD 8000 N/A         47  29  49  W1      30.06R
#PROMISE 1S     N/A         60  32  35  SW6     30.01F
#SHEEP RDG 7000 N/A         46  27  47  CALM    29.94S
#WALLOWA SCHOOL N/A         69  30  23  CALM    30.80F



$$



USA.gov is the U.S. government's official web portal to all federal, state and local government web resources and services.